Weather History for Sitka, AK

Change the Weather History Date:

Wednesday, February 6, 2013

  Actual Average Record
Temperature  
Mean Temperature 40 °F -  
Max Temperature 43 °F 42 °F 50 °F (1980)
Min Temperature 36 °F 32 °F 16 °F (1951)
Degree Days  
Heating Degree Days 26    
Moisture  
Dew Point 35 °F    
Average Humidity 86    
Maximum Humidity 97    
Minimum Humidity 76    
Precipitation  
Precipitation 0.13 in - - ()
Sea Level Pressure  
Sea Level Pressure 29.61 in    
Wind  
Wind Speed 4 mph (North)    
Max Wind Speed 8 mph    
Max Gust Speed -    
Visibility 10 miles    
Events Rain    
Averages and records for this station are not official NWS values.
T = Trace of Precipitation, MM = Missing Value Source: NWS Daily Summary

Daily Weather History Graph

Daily Weather History Graph

Search for Another Location

Airport:

Trip Planner

Search our weather history database for the weather conditions in past years. The results will help you decide how hot, cold, wet, or windy it might be!

Date:

Astronomy

Feb. 06, 2013 Rise Set
Actual Time 7:49 AM AKST 4:42 PM AKST
Civil Twilight 7:07 AM AKST 5:24 PM AKST
Nautical Twilight 6:22 AM AKST 6:09 PM AKST
Astronomical Twilight 5:37 AM AKST 6:54 PM AKST
Moon 5:06 AM AKST (2/6) 12:44 PM AKST (2/6)
Length of Visible Light 10h 16m
Length of Day
8h 53m
Waning Crescent, 15% of the Moon is Illuminated
Feb 6
Waning Crescent
Feb 9
New
Feb 17
First Quarter
Feb 25
Full
Mar 4
Last Quarter

Hourly Weather History & Observations

Time (AKST) Temp. Windchill Dew Point Humidity Pressure Visibility Wind Dir Wind Speed Gust Speed Precip Events Conditions
12:53 AM 37.0 °F 34.5 °F 35.1 °F 93% 29.46 in 10.0 mi NNW 3.5 mph - N/A   Partly Cloudy
1:53 AM 37.0 °F 33.3 °F 32.0 °F 82% 29.47 in 10.0 mi NNW 4.6 mph - N/A   Overcast
3:53 AM 37.9 °F 32.1 °F 33.1 °F 83% 29.48 in 10.0 mi NNW 8.1 mph - N/A   Mostly Cloudy
4:53 AM 37.9 °F 35.5 °F 33.1 °F 83% 29.50 in 10.0 mi NW 3.5 mph - N/A   Overcast
5:53 AM 37.0 °F 33.3 °F 34.0 °F 89% 29.51 in 10.0 mi NW 4.6 mph - N/A   Overcast
6:53 AM 37.0 °F 34.5 °F 34.0 °F 89% 29.52 in 10.0 mi NNW 3.5 mph - 0.00 in   Mostly Cloudy
7:53 AM 36.0 °F 32.1 °F 33.1 °F 89% 29.54 in 10.0 mi North 4.6 mph - N/A   Scattered Clouds
8:53 AM 36.0 °F - 34.0 °F 93% 29.56 in 10.0 mi Calm Calm - N/A   Mostly Cloudy
9:53 AM 37.9 °F 32.7 °F 34.0 °F 86% 29.58 in 10.0 mi NNW 6.9 mph - N/A   Mostly Cloudy
10:53 AM 39.0 °F 35.7 °F 34.0 °F 82% 29.60 in 10.0 mi North 4.6 mph - N/A   Mostly Cloudy
11:53 AM 39.9 °F - 35.1 °F 83% 29.62 in 10.0 mi Calm Calm - N/A   Overcast
12:53 PM 42.1 °F - 36.0 °F 79% 29.62 in 10.0 mi Calm Calm - N/A   Overcast
1:53 PM 42.1 °F 40.2 °F 36.0 °F 79% 29.63 in 10.0 mi NW 3.5 mph - N/A   Mostly Cloudy
2:53 PM 43.0 °F 41.3 °F 36.0 °F 76% 29.64 in 10.0 mi WSW 3.5 mph - N/A   Mostly Cloudy
3:53 PM 42.1 °F - 37.0 °F 82% 29.65 in 10.0 mi Calm Calm - N/A   Overcast
4:53 PM 39.9 °F - 35.1 °F 83% 29.66 in 10.0 mi Calm Calm - N/A   Mostly Cloudy
5:53 PM 39.0 °F 36.8 °F 35.1 °F 86% 29.67 in 10.0 mi East 3.5 mph - N/A   Overcast
6:53 PM 39.0 °F - 35.1 °F 86% 29.68 in 10.0 mi Calm Calm - N/A   Overcast
7:53 PM 39.0 °F 35.7 °F 36.0 °F 89% 29.69 in 10.0 mi East 4.6 mph - 0.00 in   Overcast
8:53 PM 39.0 °F 35.7 °F 36.0 °F 89% 29.70 in 10.0 mi ESE 4.6 mph - N/A   Overcast
9:53 PM 39.9 °F 35.8 °F 37.0 °F 89% 29.73 in 9.0 mi South 5.8 mph - 0.00 in Rain Light Rain
10:00 PM 39.2 °F 35.0 °F 37.4 °F 93% 29.72 in 6.0 mi SE 5.8 mph - 0.02 in Rain Rain
10:53 PM 39.0 °F - 37.0 °F 93% 29.73 in 5.0 mi Calm Calm - 0.07 in Rain Light Rain
11:53 PM 37.9 °F 32.7 °F 37.0 °F 97% 29.75 in 10.0 mi ENE 6.9 mph - 0.06 in   Overcast